Time,TemperatureF,DewpointF,PressureIn,WindDirection,WindDirectionDegrees,WindSpeedMPH,WindSpeedGustMPH,Humidity,HourlyPrecipIn,Conditions,Clouds,dailyrainin,SolarRadiationWatts/m^2,SoftwareType,DateUTC
2013-09-03 00:03:00,76.5,74.6,29.88,SE,136,0.0,0.0,94,0.00,,,0.00,0,Wunderground v.1.15,2013-09-03 05:03:00,
2013-09-03 00:09:00,76.3,74.4,29.88,SE,136,0.0,0.0,94,0.00,,,0.00,0,Wunderground v.1.15,2013-09-03 05:09:00,
2013-09-03 00:14:00,76.2,74.3,29.87,SE,136,0.0,0.0,94,0.00,,,0.00,0,Wunderground v.1.15,2013-09-03 05:14:00,
2013-09-03 00:19:00,76.1,74.2,29.88,SE,136,0.0,0.0,94,0.00,,,0.00,0,Wunderground v.1.15,2013-09-03 05:19:00,
2013-09-03 00:25:00,76.0,74.1,29.88,SE,136,0.0,0.0,94,0.00,,,0.00,0,Wunderground v.1.15,2013-09-03 05:25:00,
2013-09-03 00:30:00,75.9,74.4,29.88,SE,136,0.0,0.0,95,0.00,,,0.00,0,Wunderground v.1.15,2013-09-03 05:30:00,
2013-09-03 00:35:00,75.8,74.3,29.87,SE,136,0.0,0.0,95,0.00,,,0.00,0,Wunderground v.1.15,2013-09-03 05:35:00,
2013-09-03 00:40:00,75.8,74.3,29.88,SE,136,0.0,0.0,95,0.00,,,0.00,0,Wunderground v.1.15,2013-09-03 05:40:00,
2013-09-03 00:46:00,75.7,74.2,29.88,SE,136,0.0,0.0,95,0.00,,,0.00,0,Wunderground v.1.15,2013-09-03 05:46:00,
2013-09-03 00:51:00,75.7,74.2,29.88,SE,136,0.0,0.0,95,0.00,,,0.00,0,Wunderground v.1.15,2013-09-03 05:51:00,
2013-09-03 00:56:00,75.6,74.4,29.88,SE,136,0.0,0.0,96,0.00,,,0.00,0,Wunderground v.1.15,2013-09-03 05:56:00,
2013-09-03 01:02:00,75.6,74.1,29.88,SE,136,0.0,0.0,95,0.00,,,0.00,0,Wunderground v.1.15,2013-09-03 06:02:00,
2013-09-03 01:07:00,75.5,74.0,29.88,SE,136,0.0,0.0,95,0.00,,,0.00,0,Wunderground v.1.15,2013-09-03 06:07:00,
2013-09-03 01:12:00,75.5,74.0,29.88,SE,136,0.0,0.0,95,0.00,,,0.00,0,Wunderground v.1.15,2013-09-03 06:12:00,
2013-09-03 01:17:00,75.5,74.0,29.88,SE,136,0.0,0.0,95,0.00,,,0.00,0,Wunderground v.1.15,2013-09-03 06:17:00,
2013-09-03 01:23:00,75.5,74.0,29.88,SE,136,0.0,0.0,95,0.00,,,0.00,0,Wunderground v.1.15,2013-09-03 06:23:00,
2013-09-03 01:28:00,75.4,73.9,29.88,SE,136,0.0,0.0,95,0.00,,,0.00,0,Wunderground v.1.15,2013-09-03 06:28:00,
2013-09-03 01:33:00,75.4,73.9,29.88,SE,136,0.0,0.0,95,0.00,,,0.00,0,Wunderground v.1.15,2013-09-03 06:33:00,
2013-09-03 01:39:00,75.3,73.8,29.88,SE,136,0.0,0.0,95,0.00,,,0.00,0,Wunderground v.1.15,2013-09-03 06:39:00,
2013-09-03 01:44:00,75.3,73.8,29.88,SE,136,0.0,0.0,95,0.00,,,0.00,0,Wunderground v.1.15,2013-09-03 06:44:00,
2013-09-03 01:49:00,75.2,73.7,29.88,SE,136,0.0,0.0,95,0.00,,,0.00,0,Wunderground v.1.15,2013-09-03 06:49:00,
2013-09-03 01:55:00,75.1,73.6,29.88,SE,136,0.0,0.0,95,0.00,,,0.00,0,Wunderground v.1.15,2013-09-03 06:55:00,
2013-09-03 02:00:00,75.1,73.6,29.88,SE,136,0.0,0.0,95,0.00,,,0.00,0,Wunderground v.1.15,2013-09-03 07:00:00,
2013-09-03 02:05:00,75.1,73.6,29.88,SE,136,0.0,0.0,95,0.00,,,0.00,0,Wunderground v.1.15,2013-09-03 07:05:00,
2013-09-03 02:10:00,75.1,73.6,29.88,SE,136,0.0,0.0,95,0.00,,,0.00,0,Wunderground v.1.15,2013-09-03 07:10:00,
2013-09-03 02:16:00,75.0,73.5,29.88,SE,136,0.0,0.0,95,0.00,,,0.00,0,Wunderground v.1.15,2013-09-03 07:16:00,
2013-09-03 02:21:00,74.9,73.4,29.87,SE,136,0.0,0.0,95,0.00,,,0.00,0,Wunderground v.1.15,2013-09-03 07:21:00,
2013-09-03 02:26:00,74.9,73.4,29.87,SE,136,0.0,0.0,95,0.00,,,0.00,0,Wunderground v.1.15,2013-09-03 07:26:00,
2013-09-03 02:31:00,74.9,73.4,29.87,SE,140,0.0,0.0,95,0.00,,,0.00,0,Wunderground v.1.15,2013-09-03 07:31:00,
2013-09-03 02:37:00,74.9,73.4,29.87,SSW,200,0.0,0.0,95,0.00,,,0.00,0,Wunderground v.1.15,2013-09-03 07:37:00,
2013-09-03 02:42:00,74.9,73.4,29.87,SSW,203,0.0,3.0,95,0.00,,,0.00,0,Wunderground v.1.15,2013-09-03 07:42:00,
2013-09-03 02:47:00,74.9,73.4,29.87,SW,217,0.0,1.0,95,0.00,,,0.00,0,Wunderground v.1.15,2013-09-03 07:47:00,
2013-09-03 02:52:00,74.9,73.4,29.87,SW,218,0.0,1.0,95,0.00,,,0.00,0,Wunderground v.1.15,2013-09-03 07:52:00,
2013-09-03 02:57:00,74.9,73.4,29.87,SW,218,0.0,0.0,95,0.00,,,0.00,0,Wunderground v.1.15,2013-09-03 07:57:00,
2013-09-03 03:03:00,74.9,73.4,29.87,SW,218,0.0,0.0,95,0.00,,,0.00,0,Wunderground v.1.15,2013-09-03 08:03:00,
2013-09-03 03:08:00,74.8,73.3,29.87,SW,218,0.0,0.0,95,0.00,,,0.00,0,Wunderground v.1.15,2013-09-03 08:08:00,
2013-09-03 03:13:00,74.8,73.3,29.88,SW,218,0.0,0.0,95,0.00,,,0.00,0,Wunderground v.1.15,2013-09-03 08:13:00,
2013-09-03 03:19:00,74.8,73.3,29.88,SW,218,0.0,0.0,95,0.00,,,0.00,0,Wunderground v.1.15,2013-09-03 08:19:00,
2013-09-03 03:24:00,74.8,73.3,29.88,SW,218,0.0,0.0,95,0.00,,,0.00,0,Wunderground v.1.15,2013-09-03 08:24:00,
2013-09-03 03:29:00,74.8,73.3,29.88,SW,229,0.0,0.0,95,0.00,,,0.00,0,Wunderground v.1.15,2013-09-03 08:29:00,
2013-09-03 03:35:00,74.8,73.3,29.88,SW,229,0.0,0.0,95,0.00,,,0.00,0,Wunderground v.1.15,2013-09-03 08:35:00,
2013-09-03 03:40:00,74.7,73.2,29.88,SW,229,0.0,0.0,95,0.00,,,0.00,0,Wunderground v.1.15,2013-09-03 08:40:00,
2013-09-03 03:45:00,74.8,73.3,29.88,SW,229,0.0,0.0,95,0.00,,,0.00,0,Wunderground v.1.15,2013-09-03 08:45:00,
2013-09-03 03:50:00,74.8,73.3,29.88,SW,229,0.0,1.0,95,0.00,,,0.00,0,Wunderground v.1.15,2013-09-03 08:50:00,
2013-09-03 03:56:00,74.8,73.3,29.88,SW,229,0.0,0.0,95,0.00,,,0.00,0,Wunderground v.1.15,2013-09-03 08:56:00,
2013-09-03 04:01:00,74.7,73.5,29.88,SW,229,0.0,0.0,96,0.00,,,0.00,0,Wunderground v.1.15,2013-09-03 09:01:00,
2013-09-03 04:06:00,74.7,73.5,29.88,SW,229,0.0,0.0,96,0.00,,,0.00,0,Wunderground v.1.15,2013-09-03 09:06:00,
2013-09-03 04:12:00,74.7,73.5,29.88,SW,230,0.0,1.0,96,0.00,,,0.00,0,Wunderground v.1.15,2013-09-03 09:12:00,
2013-09-03 04:17:00,74.7,73.5,29.88,SW,230,0.0,0.0,96,0.00,,,0.00,0,Wunderground v.1.15,2013-09-03 09:17:00,
2013-09-03 04:22:00,74.7,73.5,29.88,SW,230,0.0,0.0,96,0.00,,,0.00,0,Wunderground v.1.15,2013-09-03 09:22:00,
2013-09-03 04:27:00,74.7,73.5,29.88,SW,230,0.0,2.0,96,0.00,,,0.00,0,Wunderground v.1.15,2013-09-03 09:27:00,
2013-09-03 04:32:00,74.7,73.5,29.88,SW,230,0.0,2.0,96,0.00,,,0.00,0,Wunderground v.1.15,2013-09-03 09:32:00,
2013-09-03 04:38:00,74.7,73.5,29.88,SW,230,0.0,0.0,96,0.00,,,0.00,0,Wunderground v.1.15,2013-09-03 09:38:00,
2013-09-03 04:43:00,74.7,73.5,29.88,SW,230,0.0,0.0,96,0.00,,,0.00,0,Wunderground v.1.15,2013-09-03 09:43:00,
2013-09-03 04:48:00,74.7,73.5,29.89,SW,231,0.0,0.0,96,0.00,,,0.00,0,Wunderground v.1.15,2013-09-03 09:48:00,
2013-09-03 04:53:00,74.7,73.5,29.88,SW,232,0.0,0.0,96,0.00,,,0.00,0,Wunderground v.1.15,2013-09-03 09:53:00,
2013-09-03 04:59:00,74.7,73.5,29.88,SW,232,0.0,0.0,96,0.00,,,0.00,0,Wunderground v.1.15,2013-09-03 09:59:00,
2013-09-03 05:04:00,74.6,73.4,29.89,SW,232,0.0,0.0,96,0.00,,,0.00,0,Wunderground v.1.15,2013-09-03 10:04:00,
2013-09-03 05:09:00,74.6,73.4,29.88,SW,232,0.0,0.0,96,0.00,,,0.00,0,Wunderground v.1.15,2013-09-03 10:09:00,
2013-09-03 05:15:00,74.6,73.4,29.88,SW,232,0.0,0.0,96,0.00,,,0.00,0,Wunderground v.1.15,2013-09-03 10:15:00,
2013-09-03 05:20:00,74.5,73.6,29.88,SW,232,0.0,0.0,97,0.00,,,0.00,0,Wunderground v.1.15,2013-09-03 10:20:00,
2013-09-03 05:25:00,74.5,73.6,29.88,SW,232,0.0,0.0,97,0.00,,,0.00,0,Wunderground v.1.15,2013-09-03 10:25:00,
2013-09-03 05:30:00,74.4,73.5,29.88,SW,232,0.0,0.0,97,0.00,,,0.00,0,Wunderground v.1.15,2013-09-03 10:30:00,
2013-09-03 05:35:00,74.4,73.5,29.89,SW,232,0.0,0.0,97,0.00,,,0.00,0,Wunderground v.1.15,2013-09-03 10:35:00,
2013-09-03 05:41:00,74.4,73.5,29.89,SW,232,0.0,0.0,97,0.00,,,0.00,0,Wunderground v.1.15,2013-09-03 10:41:00,
2013-09-03 05:46:00,74.4,73.5,29.89,SW,232,0.0,0.0,97,0.00,,,0.00,0,Wunderground v.1.15,2013-09-03 10:46:00,
2013-09-03 05:51:00,74.4,73.5,29.89,SW,232,0.0,0.0,97,0.00,,,0.00,0,Wunderground v.1.15,2013-09-03 10:51:00,
2013-09-03 05:57:00,74.4,73.5,29.89,SW,232,0.0,1.0,97,0.00,,,0.00,0,Wunderground v.1.15,2013-09-03 10:57:00,
2013-09-03 06:02:00,74.3,73.4,29.89,SW,232,0.0,1.0,97,0.00,,,0.00,0,Wunderground v.1.15,2013-09-03 11:02:00,
2013-09-03 06:07:00,74.3,73.4,29.90,SW,232,0.0,0.0,97,0.00,,,0.00,0,Wunderground v.1.15,2013-09-03 11:07:00,
2013-09-03 06:13:00,74.3,73.4,29.89,SW,232,0.0,0.0,97,0.00,,,0.00,0,Wunderground v.1.15,2013-09-03 11:13:00,
2013-09-03 06:18:00,74.4,73.5,29.90,SW,232,0.0,0.0,97,0.00,,,0.00,0,Wunderground v.1.15,2013-09-03 11:18:00,
2013-09-03 06:23:00,74.3,73.4,29.90,SW,232,0.0,0.0,97,0.00,,,0.00,0,Wunderground v.1.15,2013-09-03 11:23:00,
2013-09-03 06:28:00,74.3,73.4,29.90,SW,232,0.0,0.0,97,0.00,,,0.00,0,Wunderground v.1.15,2013-09-03 11:28:00,
2013-09-03 06:33:00,74.2,73.3,29.90,SW,232,0.0,0.0,97,0.00,,,0.00,0,Wunderground v.1.15,2013-09-03 11:33:00,
2013-09-03 06:38:00,74.2,73.3,29.90,SW,232,0.0,0.0,97,0.00,,,0.00,0,Wunderground v.1.15,2013-09-03 11:38:00,
2013-09-03 06:44:00,74.1,73.2,29.91,SW,232,0.0,0.0,97,0.00,,,0.00,5,Wunderground v.1.15,2013-09-03 11:44:00,
2013-09-03 06:49:00,74.1,73.2,29.91,SW,232,0.0,0.0,97,0.00,,,0.00,9,Wunderground v.1.15,2013-09-03 11:49:00,
2013-09-03 06:54:00,74.1,73.2,29.91,SW,232,0.0,0.0,97,0.00,,,0.00,14,Wunderground v.1.15,2013-09-03 11:54:00,
2013-09-03 06:59:00,74.1,73.2,29.91,SW,232,0.0,0.0,97,0.00,,,0.00,19,Wunderground v.1.15,2013-09-03 11:59:00,
2013-09-03 07:04:00,74.1,73.2,29.91,SW,232,0.0,0.0,97,0.00,,,0.00,26,Wunderground v.1.15,2013-09-03 12:04:00,
2013-09-03 07:10:00,74.1,73.2,29.91,SW,232,0.0,0.0,97,0.00,,,0.00,32,Wunderground v.1.15,2013-09-03 12:10:00,
2013-09-03 07:15:00,74.1,73.2,29.91,SW,232,0.0,0.0,97,0.00,,,0.00,35,Wunderground v.1.15,2013-09-03 12:15:00,
2013-09-03 07:20:00,74.2,73.3,29.92,SW,232,0.0,0.0,97,0.00,,,0.00,39,Wunderground v.1.15,2013-09-03 12:20:00,
2013-09-03 07:26:00,74.3,73.7,29.92,SW,232,0.0,0.0,98,0.00,,,0.00,44,Wunderground v.1.15,2013-09-03 12:26:00,
2013-09-03 07:32:00,74.4,73.8,29.92,SW,232,0.0,1.0,98,0.00,,,0.00,49,Wunderground v.1.15,2013-09-03 12:32:00,
2013-09-03 07:37:00,74.6,74.0,29.92,SW,232,0.0,0.0,98,0.00,,,0.00,53,Wunderground v.1.15,2013-09-03 12:37:00,
2013-09-03 07:42:00,74.7,74.1,29.92,SW,232,0.0,0.0,98,0.00,,,0.00,88,Wunderground v.1.15,2013-09-03 12:42:00,
2013-09-03 07:47:00,74.9,74.3,29.92,SW,232,0.0,0.0,98,0.00,,,0.00,134,Wunderground v.1.15,2013-09-03 12:47:00,
2013-09-03 07:53:00,75.2,74.6,29.92,SW,232,0.0,0.0,98,0.00,,,0.00,144,Wunderground v.1.15,2013-09-03 12:53:00,
2013-09-03 07:58:00,75.4,74.8,29.92,SW,232,0.0,0.0,98,0.00,,,0.00,114,Wunderground v.1.15,2013-09-03 12:58:00,
2013-09-03 08:04:00,75.5,74.6,29.92,SW,232,0.0,0.0,97,0.00,,,0.00,83,Wunderground v.1.15,2013-09-03 13:04:00,
2013-09-03 08:09:00,75.7,74.8,29.92,SW,232,0.0,0.0,97,0.00,,,0.00,144,Wunderground v.1.15,2013-09-03 13:09:00,
2013-09-03 08:14:00,75.9,75.0,29.92,SW,232,0.0,0.0,97,0.00,,,0.00,223,Wunderground v.1.15,2013-09-03 13:14:00,
2013-09-03 08:19:00,76.2,75.3,29.92,SW,232,0.0,0.0,97,0.00,,,0.00,246,Wunderground v.1.15,2013-09-03 13:19:00,
2013-09-03 08:25:00,76.7,75.8,29.92,SW,233,0.0,0.0,97,0.00,,,0.00,258,Wunderground v.1.15,2013-09-03 13:25:00,
2013-09-03 08:30:00,77.2,76.0,29.92,WSW,241,0.0,0.0,96,0.00,,,0.00,278,Wunderground v.1.15,2013-09-03 13:30:00,
2013-09-03 08:35:00,77.6,76.1,29.92,WNW,301,1.0,1.0,95,0.00,,,0.00,237,Wunderground v.1.15,2013-09-03 13:35:00,
2013-09-03 08:41:00,78.1,76.2,29.92,WNW,298,0.0,1.0,94,0.00,,,0.00,156,Wunderground v.1.15,2013-09-03 13:41:00,
2013-09-03 08:46:00,78.4,76.2,29.92,WNW,300,0.0,0.0,93,0.00,,,0.00,156,Wunderground v.1.15,2013-09-03 13:46:00,
2013-09-03 08:52:00,78.7,76.2,29.92,WNW,298,0.0,0.0,92,0.00,,,0.00,185,Wunderground v.1.15,2013-09-03 13:52:00,
2013-09-03 08:57:00,79.2,76.7,29.92,NW,305,1.0,1.0,92,0.00,,,0.00,413,Wunderground v.1.15,2013-09-03 13:57:00,
2013-09-03 09:02:00,79.8,76.6,29.92,NW,304,1.0,1.0,90,0.00,,,0.00,403,Wunderground v.1.15,2013-09-03 14:02:00,
2013-09-03 09:07:00,80.3,77.1,29.92,North,358,1.0,1.0,90,0.00,,,0.00,415,Wunderground v.1.15,2013-09-03 14:07:00,
2013-09-03 09:13:00,80.8,76.6,29.92,West,275,1.0,3.0,87,0.00,,,0.00,427,Wunderground v.1.15,2013-09-03 14:13:00,
2013-09-03 09:18:00,81.2,77.3,29.93,West,279,1.0,1.0,88,0.00,,,0.00,434,Wunderground v.1.15,2013-09-03 14:18:00,
2013-09-03 09:23:00,81.4,77.2,29.93,WNW,283,0.0,0.0,87,0.00,,,0.00,457,Wunderground v.1.15,2013-09-03 14:23:00,
2013-09-03 09:28:00,81.7,77.1,29.93,West,281,1.0,1.0,86,0.00,,,0.00,471,Wunderground v.1.15,2013-09-03 14:28:00,
2013-09-03 09:34:00,82.0,77.0,29.93,WNW,289,1.0,1.0,85,0.00,,,0.00,492,Wunderground v.1.15,2013-09-03 14:34:00,
2013-09-03 09:46:00,82.5,77.5,29.93,West,273,1.0,1.0,85,0.00,,,0.00,527,Wunderground v.1.15,2013-09-03 14:46:00,
2013-09-03 09:52:00,83.0,77.3,29.93,WNW,289,1.0,4.0,83,0.00,,,0.00,543,Wunderground v.1.15,2013-09-03 14:52:00,
2013-09-03 09:57:00,83.2,77.1,29.93,West,275,1.0,3.0,82,0.00,,,0.00,561,Wunderground v.1.15,2013-09-03 14:57:00,
2013-09-03 10:02:00,83.6,77.5,29.93,West,278,1.0,3.0,82,0.00,,,0.00,573,Wunderground v.1.15,2013-09-03 15:02:00,
2013-09-03 10:08:00,84.1,78.0,29.93,West,278,0.0,1.0,82,0.00,,,0.00,587,Wunderground v.1.15,2013-09-03 15:08:00,
2013-09-03 10:13:00,84.8,78.3,29.93,West,278,0.0,0.0,81,0.00,,,0.00,608,Wunderground v.1.15,2013-09-03 15:13:00,
2013-09-03 10:19:00,85.0,78.1,29.93,West,277,0.0,2.0,80,0.00,,,0.00,621,Wunderground v.1.15,2013-09-03 15:19:00,
2013-09-03 10:24:00,85.4,78.5,29.94,West,277,0.0,0.0,80,0.00,,,0.00,631,Wunderground v.1.15,2013-09-03 15:24:00,
2013-09-03 10:29:00,85.7,78.0,29.93,West,277,0.0,0.0,78,0.00,,,0.00,649,Wunderground v.1.15,2013-09-03 15:29:00,
2013-09-03 10:35:00,86.0,77.9,29.94,West,277,0.0,0.0,77,0.00,,,0.00,657,Wunderground v.1.15,2013-09-03 15:35:00,
2013-09-03 10:40:00,86.4,78.3,29.94,West,273,0.0,1.0,77,0.00,,,0.00,671,Wunderground v.1.15,2013-09-03 15:40:00,
2013-09-03 10:47:00,86.5,77.6,29.94,West,272,0.0,1.0,75,0.00,,,0.00,691,Wunderground v.1.15,2013-09-03 15:47:00,
2013-09-03 10:58:00,87.6,77.9,29.94,West,272,0.0,4.0,73,0.00,,,0.00,744,Wunderground v.1.15,2013-09-03 15:58:00,
2013-09-03 11:03:00,87.8,78.1,29.94,West,272,0.0,0.0,73,0.00,,,0.00,710,Wunderground v.1.15,2013-09-03 16:03:00,
2013-09-03 11:08:00,88.0,77.4,29.93,SW,228,0.0,2.0,71,0.00,,,0.00,715,Wunderground v.1.15,2013-09-03 16:08:00,
2013-09-03 11:14:00,88.1,76.6,29.93,West,268,0.0,0.0,69,0.00,,,0.00,768,Wunderground v.1.15,2013-09-03 16:14:00,
2013-09-03 11:19:00,88.2,78.0,29.93,West,268,0.0,0.0,72,0.00,,,0.00,788,Wunderground v.1.15,2013-09-03 16:19:00,
2013-09-03 11:24:00,88.1,76.6,29.93,WNW,288,0.0,1.0,69,0.00,,,0.00,788,Wunderground v.1.15,2013-09-03 16:24:00,
2013-09-03 11:29:00,88.3,77.3,29.93,WNW,288,0.0,1.0,70,0.00,,,0.00,800,Wunderground v.1.15,2013-09-03 16:29:00,
2013-09-03 11:35:00,88.7,77.2,29.93,WNW,288,0.0,0.0,69,0.00,,,0.00,821,Wunderground v.1.15,2013-09-03 16:35:00,
2013-09-03 11:40:00,88.9,77.4,29.93,WNW,301,0.0,0.0,69,0.00,,,0.00,847,Wunderground v.1.15,2013-09-03 16:40:00,
2013-09-03 11:49:00,88.8,76.9,29.92,NW,306,1.0,1.0,68,0.00,,,0.00,881,Wunderground v.1.15,2013-09-03 16:49:00,
2013-09-03 11:55:00,89.1,76.7,29.92,NW,307,0.0,0.0,67,0.00,,,0.00,703,Wunderground v.1.15,2013-09-03 16:55:00,
2013-09-03 12:00:00,89.5,76.6,29.92,WNW,295,0.0,0.0,66,0.00,,,0.00,916,Wunderground v.1.15,2013-09-03 17:00:00,
2013-09-03 12:20:00,90.1,76.7,29.91,SSW,210,0.0,3.0,65,0.00,,,0.00,327,Wunderground v.1.15,2013-09-03 17:20:00,
2013-09-03 12:41:00,89.2,77.3,29.91,West,271,1.0,1.0,68,0.00,,,0.00,1018,Wunderground v.1.15,2013-09-03 17:41:00,
2013-09-03 12:51:00,89.8,76.5,29.90,SW,223,0.0,1.0,65,0.00,,,0.00,306,Wunderground v.1.15,2013-09-03 17:51:00,
2013-09-03 12:56:00,90.0,76.6,29.90,SSW,213,0.0,0.0,65,0.00,,,0.00,330,Wunderground v.1.15,2013-09-03 17:56:00,
2013-09-03 13:01:00,90.2,75.4,29.90,South,179,1.0,8.0,62,0.00,,,0.00,1025,Wunderground v.1.15,2013-09-03 18:01:00,
2013-09-03 13:12:00,90.0,76.2,29.90,SW,232,1.0,8.0,64,0.00,,,0.00,1009,Wunderground v.1.15,2013-09-03 18:12:00,
2013-09-03 13:22:00,89.0,75.7,29.90,SW,231,1.0,9.0,65,0.00,,,0.00,192,Wunderground v.1.15,2013-09-03 18:22:00,
2013-09-03 13:33:00,85.8,78.9,29.91,East,98,0.0,1.0,80,0.52,,,0.09,214,Wunderground v.1.15,2013-09-03 18:33:00,
2013-09-03 13:38:00,83.2,77.1,29.90,East,96,0.0,0.0,82,0.29,,,0.12,165,Wunderground v.1.15,2013-09-03 18:38:00,
2013-09-03 13:43:00,81.8,77.5,29.89,East,96,0.0,0.0,87,0.12,,,0.13,185,Wunderground v.1.15,2013-09-03 18:43:00,
2013-09-03 13:54:00,80.5,77.3,29.89,East,96,0.0,0.0,90,0.08,,,0.14,635,Wunderground v.1.15,2013-09-03 18:54:00,
2013-09-03 13:59:00,81.2,79.3,29.89,East,96,0.0,0.0,94,0.06,,,0.14,979,Wunderground v.1.15,2013-09-03 18:59:00,
2013-09-03 14:14:00,82.7,80.5,29.88,East,96,0.0,0.0,93,0.00,,,0.14,802,Wunderground v.1.15,2013-09-03 19:14:00,
2013-09-03 14:24:00,83.4,79.5,29.89,East,96,0.0,0.0,88,0.00,,,0.14,380,Wunderground v.1.15,2013-09-03 19:24:00,
2013-09-03 14:35:00,83.9,77.8,29.86,NE,53,1.0,8.0,82,0.00,,,0.14,772,Wunderground v.1.15,2013-09-03 19:35:00,
2013-09-03 14:40:00,84.1,77.6,29.86,NNW,337,2.0,8.0,81,0.00,,,0.14,369,Wunderground v.1.15,2013-09-03 19:40:00,
2013-09-03 14:55:00,83.8,77.0,29.87,NE,41,0.0,0.0,80,0.00,,,0.14,645,Wunderground v.1.15,2013-09-03 19:55:00,
2013-09-03 15:01:00,84.1,77.3,29.86,NE,41,0.0,2.0,80,0.00,,,0.14,868,Wunderground v.1.15,2013-09-03 20:01:00,
2013-09-03 15:06:00,84.8,77.6,29.86,NE,41,0.0,0.0,79,0.00,,,0.14,842,Wunderground v.1.15,2013-09-03 20:06:00,
2013-09-03 15:26:00,86.2,76.1,29.86,West,273,2.0,2.0,72,0.00,,,0.14,842,Wunderground v.1.15,2013-09-03 20:26:00,
2013-09-03 15:31:00,86.3,77.0,29.86,West,269,1.0,2.0,74,0.00,,,0.14,814,Wunderground v.1.15,2013-09-03 20:31:00,
2013-09-03 15:36:00,86.6,76.9,29.86,West,274,0.0,1.0,73,0.00,,,0.14,772,Wunderground v.1.15,2013-09-03 20:36:00,
2013-09-03 15:47:00,86.3,76.6,29.87,West,275,0.0,0.0,73,0.00,,,0.14,104,Wunderground v.1.15,2013-09-03 20:47:00,
2013-09-03 15:52:00,85.9,76.6,29.87,West,275,0.0,0.0,74,0.00,,,0.14,95,Wunderground v.1.15,2013-09-03 20:52:00,
2013-09-03 15:58:00,85.5,77.5,29.86,West,275,0.0,0.0,77,0.00,,,0.14,90,Wunderground v.1.15,2013-09-03 20:58:00,
2013-09-03 16:03:00,85.1,77.5,29.86,West,275,0.0,0.0,78,0.00,,,0.14,86,Wunderground v.1.15,2013-09-03 21:03:00,
2013-09-03 16:09:00,84.5,78.0,29.85,West,275,0.0,0.0,81,0.00,,,0.14,83,Wunderground v.1.15,2013-09-03 21:09:00,
2013-09-03 16:15:00,84.0,77.2,29.86,West,271,0.0,0.0,80,0.00,,,0.14,81,Wunderground v.1.15,2013-09-03 21:15:00,
2013-09-03 16:20:00,83.6,77.9,29.86,West,275,0.0,0.0,83,0.00,,,0.14,79,Wunderground v.1.15,2013-09-03 21:20:00,
2013-09-03 16:28:00,82.9,77.6,29.86,West,275,0.0,0.0,84,0.00,,,0.14,79,Wunderground v.1.15,2013-09-03 21:28:00,
2013-09-03 16:34:00,82.7,77.7,29.85,West,275,0.0,0.0,85,0.00,,,0.14,81,Wunderground v.1.15,2013-09-03 21:34:00,
2013-09-03 16:39:00,82.3,77.7,29.85,SE,143,0.0,3.0,86,0.00,,,0.14,83,Wunderground v.1.15,2013-09-03 21:39:00,
2013-09-03 16:44:00,82.1,77.8,29.84,SE,143,0.0,0.0,87,0.00,,,0.14,86,Wunderground v.1.15,2013-09-03 21:44:00,
2013-09-03 16:51:00,82.0,78.1,29.84,SE,143,0.0,0.0,88,0.00,,,0.14,91,Wunderground v.1.15,2013-09-03 21:51:00,
2013-09-03 16:56:00,81.8,78.2,29.83,SE,137,0.0,0.0,89,0.00,,,0.14,97,Wunderground v.1.15,2013-09-03 21:56:00,
2013-09-03 17:01:00,81.7,78.1,29.83,SE,137,0.0,0.0,89,0.00,,,0.14,105,Wunderground v.1.15,2013-09-03 22:01:00,
2013-09-03 17:20:00,81.4,77.8,29.85,SE,142,0.0,0.0,89,0.00,,,0.14,137,Wunderground v.1.15,2013-09-03 22:20:00,
2013-09-03 17:30:00,81.3,77.4,29.84,SE,142,0.0,0.0,88,0.00,,,0.14,134,Wunderground v.1.15,2013-09-03 22:30:00,
2013-09-03 17:35:00,81.1,77.2,29.85,SE,142,0.0,0.0,88,0.00,,,0.14,128,Wunderground v.1.15,2013-09-03 22:35:00,
2013-09-03 17:40:00,81.1,76.9,29.84,SE,142,0.0,0.0,87,0.00,,,0.14,127,Wunderground v.1.15,2013-09-03 22:40:00,
2013-09-03 17:53:00,81.0,77.1,29.86,SE,142,0.0,0.0,88,0.00,,,0.14,125,Wunderground v.1.15,2013-09-03 22:53:00,
2013-09-03 17:59:00,80.9,76.7,29.86,SE,142,0.0,0.0,87,0.00,,,0.14,120,Wunderground v.1.15,2013-09-03 22:59:00,
2013-09-03 18:04:00,80.7,76.8,29.87,SE,142,0.0,0.0,88,0.00,,,0.14,111,Wunderground v.1.15,2013-09-03 23:04:00,
2013-09-03 18:15:00,80.5,76.6,29.87,SE,142,0.0,0.0,88,0.00,,,0.14,98,Wunderground v.1.15,2013-09-03 23:15:00,
2013-09-03 18:20:00,80.4,76.9,29.88,SE,142,0.0,0.0,89,0.00,,,0.14,88,Wunderground v.1.15,2013-09-03 23:20:00,
2013-09-03 18:26:00,80.2,76.7,29.88,SE,142,0.0,1.0,89,0.00,,,0.14,76,Wunderground v.1.15,2013-09-03 23:26:00,
2013-09-03 18:31:00,80.0,76.8,29.88,SE,142,0.0,1.0,90,0.00,,,0.14,67,Wunderground v.1.15,2013-09-03 23:31:00,
2013-09-03 18:36:00,79.9,76.7,29.88,SE,142,0.0,0.0,90,0.00,,,0.14,60,Wunderground v.1.15,2013-09-03 23:36:00,
2013-09-03 18:41:00,79.9,76.7,29.88,SE,142,0.0,0.0,90,0.00,,,0.14,49,Wunderground v.1.15,2013-09-03 23:41:00,
2013-09-03 19:07:00,79.2,76.3,29.88,SE,142,0.0,0.0,91,0.00,,,0.14,21,Wunderground v.1.15,2013-09-04 00:07:00,
2013-09-03 19:12:00,79.0,75.8,29.88,SE,142,0.0,0.0,90,0.00,,,0.14,19,Wunderground v.1.15,2013-09-04 00:12:00,
2013-09-03 19:18:00,78.7,75.8,29.87,SE,142,0.0,0.0,91,0.00,,,0.14,12,Wunderground v.1.15,2013-09-04 00:18:00,
2013-09-03 19:23:00,78.5,75.7,29.87,SE,142,0.0,0.0,91,0.00,,,0.14,5,Wunderground v.1.15,2013-09-04 00:23:00,
2013-09-03 19:28:00,78.2,75.4,29.87,SE,142,0.0,0.0,91,0.00,,,0.14,0,Wunderground v.1.15,2013-09-04 00:28:00,
2013-09-03 19:34:00,78.0,74.8,29.87,SE,142,0.0,0.0,90,0.00,,,0.14,0,Wunderground v.1.15,2013-09-04 00:34:00,
2013-09-03 19:39:00,77.9,74.7,29.87,SE,142,0.0,0.0,90,0.00,,,0.14,0,Wunderground v.1.15,2013-09-04 00:39:00,
2013-09-03 19:44:00,77.8,75.0,29.87,SE,142,0.0,0.0,91,0.00,,,0.14,0,Wunderground v.1.15,2013-09-04 00:44:00,
2013-09-03 19:49:00,77.8,75.0,29.86,SE,142,0.0,0.0,91,0.00,,,0.14,0,Wunderground v.1.15,2013-09-04 00:49:00,
2013-09-03 19:54:00,77.6,74.8,29.87,SE,142,0.0,0.0,91,0.00,,,0.14,0,Wunderground v.1.15,2013-09-04 00:54:00,
2013-09-03 19:59:00,77.4,74.9,29.87,SE,142,0.0,0.0,92,0.00,,,0.14,0,Wunderground v.1.15,2013-09-04 00:59:00,
2013-09-03 20:04:00,77.3,74.8,29.87,SE,142,0.0,0.0,92,0.00,,,0.14,0,Wunderground v.1.15,2013-09-04 01:04:00,
2013-09-03 20:10:00,76.9,74.4,29.88,SE,142,0.0,0.0,92,0.00,,,0.14,0,Wunderground v.1.15,2013-09-04 01:10:00,
2013-09-03 20:15:00,76.6,74.4,29.88,SE,142,0.0,0.0,93,0.00,,,0.14,0,Wunderground v.1.15,2013-09-04 01:15:00,
2013-09-03 20:21:00,76.6,74.7,29.89,SE,142,0.0,0.0,94,0.00,,,0.14,0,Wunderground v.1.15,2013-09-04 01:21:00,
2013-09-03 20:30:00,76.4,74.5,29.90,SE,142,0.0,0.0,94,0.00,,,0.14,0,Wunderground v.1.15,2013-09-04 01:30:00,
2013-09-03 20:36:00,76.3,74.4,29.91,SE,142,0.0,3.0,94,0.00,,,0.14,0,Wunderground v.1.15,2013-09-04 01:36:00,
2013-09-03 20:41:00,76.2,74.0,29.91,SE,142,0.0,3.0,93,0.00,,,0.14,0,Wunderground v.1.15,2013-09-04 01:41:00,
2013-09-03 20:51:00,76.1,73.9,29.93,SE,142,0.0,0.0,93,0.00,,,0.14,0,Wunderground v.1.15,2013-09-04 01:51:00,
2013-09-03 20:56:00,76.0,73.8,29.93,SE,142,0.0,0.0,93,0.00,,,0.14,0,Wunderground v.1.15,2013-09-04 01:56:00,
2013-09-03 21:02:00,76.0,73.8,29.93,SE,142,0.0,0.0,93,0.00,,,0.14,0,Wunderground v.1.15,2013-09-04 02:02:00,
2013-09-03 21:12:00,76.1,73.9,29.93,SSE,158,0.0,3.0,93,0.00,,,0.14,0,Wunderground v.1.15,2013-09-04 02:12:00,
2013-09-03 21:17:00,76.1,73.9,29.93,SSE,158,0.0,0.0,93,0.00,,,0.14,0,Wunderground v.1.15,2013-09-04 02:17:00,
2013-09-03 21:22:00,76.1,73.9,29.93,SSE,158,0.0,0.0,93,0.00,,,0.14,0,Wunderground v.1.15,2013-09-04 02:22:00,
2013-09-03 21:33:00,76.2,73.7,29.94,SSE,158,0.0,0.0,92,0.00,,,0.14,0,Wunderground v.1.15,2013-09-04 02:33:00,
2013-09-03 21:38:00,76.2,73.7,29.94,SSE,158,0.0,3.0,92,0.00,,,0.14,0,Wunderground v.1.15,2013-09-04 02:38:00,
2013-09-03 21:44:00,76.0,73.8,29.94,SSE,158,0.0,0.0,93,0.00,,,0.14,0,Wunderground v.1.15,2013-09-04 02:44:00,
2013-09-03 22:04:00,76.2,74.0,29.94,ENE,65,0.0,0.0,93,0.00,,,0.14,0,Wunderground v.1.15,2013-09-04 03:04:00,
2013-09-03 22:15:00,76.1,73.6,29.94,ENE,65,0.0,4.0,92,0.00,,,0.14,0,Wunderground v.1.15,2013-09-04 03:15:00,
2013-09-03 22:20:00,76.0,73.5,29.94,NNE,22,1.0,4.0,92,0.00,,,0.14,0,Wunderground v.1.15,2013-09-04 03:20:00,
2013-09-03 22:35:00,76.0,73.5,29.93,NNE,25,0.0,0.0,92,0.00,,,0.14,0,Wunderground v.1.15,2013-09-04 03:35:00,
2013-09-03 22:45:00,75.8,73.3,29.94,NNE,24,0.0,0.0,92,0.00,,,0.14,0,Wunderground v.1.15,2013-09-04 03:45:00,
2013-09-03 22:51:00,75.7,73.2,29.94,NNE,24,0.0,0.0,92,0.00,,,0.14,0,Wunderground v.1.15,2013-09-04 03:51:00,
2013-09-03 22:56:00,75.6,73.1,29.93,NNE,21,0.0,6.0,92,0.00,,,0.14,0,Wunderground v.1.15,2013-09-04 03:56:00,
2013-09-03 23:01:00,75.6,73.1,29.93,NNE,21,0.0,6.0,92,0.00,,,0.14,0,Wunderground v.1.15,2013-09-04 04:01:00,
2013-09-03 23:02:00,75.6,73.4,29.93,NNE,21,0.0,6.0,93,0.00,,,0.14,0,Wunderground v.1.15,2013-09-04 04:02:00,
2013-09-03 23:03:00,75.6,73.1,29.93,NNE,21,0.0,0.0,92,0.00,,,0.14,0,Wunderground v.1.15,2013-09-04 04:03:00,
2013-09-03 23:09:00,75.5,73.0,29.93,NNE,21,0.0,0.0,92,0.00,,,0.14,0,Wunderground v.1.15,2013-09-04 04:09:00,
2013-09-03 23:14:00,75.5,73.0,29.92,NNE,21,0.0,0.0,92,0.00,,,0.14,0,Wunderground v.1.15,2013-09-04 04:14:00,
2013-09-03 23:26:00,75.5,73.3,29.93,NNE,21,0.0,0.0,93,0.00,,,0.14,0,Wunderground v.1.15,2013-09-04 04:26:00,
2013-09-03 23:32:00,75.4,72.9,29.93,NNE,21,0.0,0.0,92,0.00,,,0.14,0,Wunderground v.1.15,2013-09-04 04:32:00,
2013-09-03 23:37:00,75.3,73.1,29.94,NNE,22,0.0,0.0,93,0.00,,,0.14,0,Wunderground v.1.15,2013-09-04 04:37:00,
2013-09-03 23:42:00,75.2,73.0,29.94,ESE,104,0.0,0.0,93,0.00,,,0.14,0,Wunderground v.1.15,2013-09-04 04:42:00,
2013-09-03 23:48:00,75.2,73.0,29.94,ESE,104,0.0,0.0,93,0.00,,,0.14,0,Wunderground v.1.15,2013-09-04 04:48:00,
2013-09-03 23:53:00,75.2,73.0,29.94,ESE,104,0.0,0.0,93,0.00,,,0.14,0,Wunderground v.1.15,2013-09-04 04:53:00,
2013-09-03 23:58:00,75.1,72.9,29.94,ESE,104,0.0,0.0,93,0.00,,,0.14,0,Wunderground v.1.15,2013-09-04 04:58:00,